STARLINK-31099, 58781

Orbit data source: Space-Track

STARLINK-31099, 58781 is a payload satellite owned by SpaceX/Seattle (US) in LEO that was launched on Sun, 14 Jan 2024 UTC via an FALCON 9 launch vehicle from the Air Force Western Test Range (AFWTR). Payload-class satellites include a variety of spacecraft equipped with specific instruments for various scientific and technological missions. These include communications satellites like Starlink; space stations such as the ISS; scientific satellites like the Hubble; Earth observation satellites from companies like Planet Labs, Umbra, and HawkEye 360; GPS; miniature CubeSats for education and research; and military/defense satellites.

Loading next visibility...
Identifier
58781, 2024-011S
Orbit
LEO
Country
Flag of USUS
Related business
Manufacturer
SpaceX/Seattle
Mission
Operational Commercial Communications
Bus & Motor
STARLINK V2M, Unknown motor
Mass
730 kg wet, ~700 kg dry
Launch date (UTC)
2024-01-14 (2 years ago)
Launch vehicle
FALCON 9
Launch site
Air Force Western Test Range (AFWTR)
Object type
Payload
Rocket body
Debris
Shape & HBR
Box + 2 Pan, 17.7 m
Radar Cross Section
33.884 m², Large (>1 m²)

Expand to show TLE details & history
Last TLE update: 2 days ago

TLE from 2 days ago
0 STARLINK-31099
1 58781U 24011S   26171.40123139  .00000122  00000-0  16250-4 0  9990
2 58781  53.1605 256.7411 0001140  92.0102 268.1030 15.30191707135998
Epoch: 2026-06-20T09:37Z
TLE epoch observation values (Epoch: 2026-06-20T09:37:46.392Z)
Latitude
0.00005°
Longitude
-156.31854°
Altitude
476.166 km
Speed
7.629 km/s
True Right ascension
17h 06m 57s
True Declination
0° 00' 00"
Sunlit
Object was in full shadow at epoch
Visualization orbit readout
Latitude
Unknown
Longitude
Unknown
Altitude
Unknown
Speed
Unknown
Apparent Right ascension
Unknown
Apparent Declination
Unknown
Sunlit
N/A
Visualization observer readout
Local Sidereal Time
21:30:48
Azimuth
Unknown
Elevation
Unknown
Doppler factor
Unknown
Orbital elements
Apogee altitude
476.277 km
Perigee altitude
474.715 km
Semi-major axis
6,853.633 km
Eccentricity
0.00011
Inclination
53.1605°
RAAN
256.7411°
Arg. of periapsis
92.0102°
True anomaly
268.08994°
Mean anomaly
268.103°
Eccentric anomaly
268.09647°
Mean motion
3.82527 °/min
Orbital period
94.11 mins
BSTAR
0.00001625
Loading maneuver chart data...
Computing Atmospheric mass density...
Loading historical data...
Loading historical data...
Loading historical data...
Loading historical data...
Loading historical data...
Loading historical data...
Loading historical data...

Documentation

Showing up to 5 results
|